Location: ???????????
(54.5822°N, 39.1075°E)
Time: 17:08:54
(UTC+00:00)

Daily predictions for brighter satellites

Satellite Brightness Start Highest point End
(mag) Time Altitude Azimuth Time Altitude Azimuth Time Altitude Azimuth
Cosmos 2154 Rocket 4.4 18:05:51 10° NNW 18:12:01 67° W 18:18:09 10° S
Nadezhda 1 Rocket 4.0 18:07:15 10° S 18:13:19 74° E 18:19:31 10° NNE
Cosmos 1814 Rocket 4.0 18:08:47 10° SSW 18:13:55 76° ESE 18:19:07 10° NNE
Cosmos 1867 3.7 18:08:36 10° NW 18:14:06 86° SW 18:19:34 10° SE
SPOT 5 4.1 18:10:15 10° SSW 18:14:14 35° W 18:18:13 10° NNW
Cosmos 2341 Rocket 4.2 18:08:14 10° N 18:14:28 59° ENE 18:20:35 10° SSE
Lacrosse 5 rocket 1.7 18:11:32 10° WNW 18:14:55 39° SW 18:18:10 10° SE
Cosmos-2242 3.2 18:17:06 10° S 18:21:16 55° E 18:25:28 10° NNE
Cosmos 2082 Rocket 3.9 18:19:39 10° SE 18:22:28 14° E 18:25:17 10° ENE
SeaSat 1 2.9 18:18:06 10° SE 18:22:52 53° NE 18:27:39 10° NNW
Cosmos 1536 4.2 18:21:11 10° N 18:24:20 24° ENE 18:27:27 10° ESE
Iridium 4 Rocket 4.0 18:19:54 10° N 18:24:51 66° W 18:30:14 10° S
Okean O Rocket 3.0 18:23:16 10° SSW 18:27:18 36° W 18:31:21 10° NNW
SPOT 3 Rocket 3.6 18:23:10 10° SSE 18:28:18 76° ENE 18:33:28 10° NNW
Cosmos 2221 3.9 18:25:08 10° SE 18:28:23 22° E 18:31:38 10° NE
Cosmos 1933 3.5 18:25:45 10° SSW 18:29:36 71° WNW 18:33:29 10° N
NOSS 2-3 (C) 4.3 18:27:05 10° WSW 18:30:37 52° NNW 18:34:52 10° NE
ERS-1 Rocket 3.8 18:27:26 10° S 18:32:17 48° W 18:37:09 10° NNW
Okean-O 3.7 18:28:30 10° S 18:32:40 43° W 18:36:54 10° NNW
NOSS 3-1 (C) 3.6 18:33:27 10° S 18:37:54 37° ESE 18:43:13 10° ENE
Cosmos 1743 4.1 18:39:54 10° NNW 18:42:57 30° W 18:45:59 10° SSW
Spot 2 Rocket 3.9 18:38:50 10° S 18:43:47 60° WSW 18:48:48 10° NNW
Cosmos 2333 Rocket 4.0 18:39:31 10° NNW 18:44:18 26° NNE 18:49:01 10° E
Cosmos 2084 Rocket 4.3 18:43:58 10° S 18:47:36 28° SE 18:51:15 10° ENE
ISS -3.0 18:44:29 10° W 18:47:37 37° SSW 18:50:24 12° SE
Lacrosse 4 Rocket 3.7 18:44:20 10° W 18:47:50 29° NW 18:51:23 10° NNE
ARIANE 6 FM1 Upper Stage 2.5 18:45:12 10° SW 18:49:10 64° SE 18:53:13 10° ENE
IKONOS-2 4.5 18:45:24 10° NNE 18:49:33 86° WNW 18:53:40 10° SSW
Cosmos 1833 Rocket 2.7 18:44:20 10° SSW 18:49:55 69° ESE 18:55:33 10° NE
Cosmos 1821 Rocket 4.2 18:44:04 10° N 18:50:08 59° ENE 18:55:50 11° SSE
Cosmos 2218 Rocket 4.1 18:48:22 10° N 18:54:49 87° E 19:01:07 10° S
Cosmos 1356 Rocket 3.5 18:53:35 10° S 18:57:39 59° E 19:01:41 10° NNE
Cosmos 1733 3.9 18:57:33 10° NNW 19:00:28 37° W 19:03:20 10° SSW
Cosmos 2219 Rocket 4.4 18:56:18 10° NNW 19:00:31 21° NNE 19:04:41 10° ENE
Cosmos 158 Rocket 4.2 18:55:29 10° SSW 19:00:49 83° WNW 19:06:15 10° NNE
NOSS 3-1 (A) 3.9 19:03:26 10° S 19:07:36 29° ESE 19:12:30 10° ENE
USA 234 3.3 19:01:38 10° ENE 19:08:08 62° SSE 19:14:37 10° SW
Cosmos 2058 Rocket 4.4 19:04:04 10° SW 19:08:18 42° WNW 19:12:34 10° N
Cosmos 1980 Rocket 2.3 19:05:17 10° NW 19:10:53 76° WSW 19:15:43 14° SSE
Cosmos 1805 3.0 19:11:01 10° N 19:14:28 67° ENE 19:17:00 17° SSE
Cosmos 1812 Rocket 3.5 19:12:08 10° S 19:16:25 80° ESE 19:20:46 10° NNE
Terra 3.8 19:14:07 10° SW 19:17:51 23° W 19:21:37 10° NW
SWARM A 4.4 19:15:00 11° S 19:18:10 76° W 19:21:35 10° N
Cosmos 2181 Rocket 4.0 19:14:20 10° S 19:20:37 77° E 19:27:01 10° NNE
Cosmos 2208 Rocket 4.0 19:16:25 10° SSW 19:21:46 71° ESE 19:27:04 10° NNE
SL-16 R/B 3.0 19:16:29 10° NNW 19:21:58 46° NE 19:27:24 10° ESE
ATLAS CENTAUR R/B 1.5 19:20:03 10° SW 19:23:47 69° NW 19:27:39 10° NE
Cosmos 1315 Rocket 2.7 19:20:18 11° S 19:23:57 76° ESE 19:27:52 10° NNE
Meteor 1-11 Rocket 3.9 19:18:32 10° N 19:24:02 63° ENE 19:28:28 16° SSE
SL-24 R/B 4.1 19:22:08 10° NNE 19:26:28 79° ESE 19:30:53 10° SSW
Cosmos 2344 4.2 19:19:23 10° WSW 19:26:34 59° NNW 19:34:15 10° NE
DELTA 2 DEB (DPAF) 3.9 19:26:26 10° NNE 19:30:21 59° ESE 19:33:23 16° S
Cosmos 2322 Rocket 3.4 19:25:35 10° NNW 19:30:53 37° NE 19:36:06 10° ESE
Cosmos 2237 4.4 19:25:36 10° NNW 19:31:18 67° NE 19:36:07 15° SE
BlueWalker 3 3.6 19:32:28 10° W 19:34:56 17° SW 19:36:16 15° SSW
Meteor 1-14 Rocket 4.4 19:30:51 10° NNW 19:36:25 68° W 19:41:17 14° S
Genesis I 3.0 19:34:25 10° NW 19:37:07 47° NE 19:39:01 17° ESE
Cosmos 1975 3.5 19:35:12 10° N 19:38:41 37° ENE 19:40:57 18° SE
Ariane Rocket 4.3 19:37:24 10° SSW 19:41:58 33° W 19:46:34 10° NNW
Nadezhda 3 Rocket 4.1 19:37:18 15° S 19:42:20 61° E 19:48:30 10° NNE
Cosmos 1697 Rocket 4.3 19:38:01 10° NW 19:42:36 26° WSW 19:47:10 10° SSW
CZ-4C R/B 3.5 19:39:51 10° NNE 19:43:24 45° E 19:45:22 22° SSE
CENTAUR R/B 3.6 19:37:14 10° NW 19:44:45 62° NNE 19:53:42 10° ESE
Cosmos 1934 Rocket 4.2 19:40:01 10° N 19:46:12 62° ENE 19:51:02 18° SSE
ATLAS 3B R/B 3.8 19:42:57 16° SSE 19:47:27 29° ESE 19:53:51 10° ENE
Cosmos 2278 4.0 19:42:35 10° NNW 19:48:13 63° NE 19:52:56 15° SE
ARIANE 5 R/B 2.9 19:46:27 19° SE 19:49:26 60° ENE 19:53:45 10° N
Cosmos 1238 Rocket 3.0 19:46:06 11° SSW 19:49:30 53° WNW 19:52:41 10° N
Cosmos 2360 Rocket 3.2 19:45:20 10° NNW 19:50:41 41° NE 19:55:59 10° ESE
Cosmos 1842 Rocket 4.1 19:48:46 20° SSE 19:51:17 41° E 19:55:21 10° NNE
Meteor 2-6 Rocket 4.5 19:48:40 10° SSW 19:54:31 73° WNW 20:00:14 10° NNE
Cosmos 2369 4.0 19:50:01 10° NW 19:55:34 57° WSW 19:59:35 19° S
Cosmos 1766 3.3 19:52:39 10° N 19:56:04 52° ENE 19:57:53 24° SE
Cosmos 1470 3.9 19:54:18 10° N 19:57:27 29° ENE 19:59:30 17° ESE
Cosmos 1908 3.8 19:55:56 10° N 19:59:00 36° ENE 20:00:37 21° SE
Cosmos 1536 3.7 19:56:25 10° NNW 20:00:02 40° W 20:02:41 16° SSW
SeaSat 1 3.4 19:57:02 16° S 20:00:26 35° WSW 20:04:58 10° NW
CZ-2C R/B 4.0 19:58:51 10° NNE 20:03:07 47° E 20:05:39 22° SSE
Cosmos 2221 3.2 20:01:11 10° SSW 20:05:14 48° WNW 20:09:18 10° N
Cosmos 2082 Rocket 2.2 20:00:20 12° SSW 20:05:29 67° ESE 20:11:06 10° NE
Cosmos 405 Rocket 2.4 20:03:09 10° NNW 20:06:36 77° WSW 20:08:21 27° S
Timation 1 Rocket 4.5 20:04:14 15° S 20:09:04 56° ESE 20:14:56 10° NE
Okean 1 4.4 20:08:17 10° SW 20:11:44 37° WNW 20:15:11 10° N
KORONAS-FOTON 4.5 20:14:56 25° SE 20:16:17 34° E 20:19:30 10° NNE
Meteor 1-10 Rocket 4.4 20:11:54 15° SSW 20:16:57 85° WNW 20:22:49 10° NNE
COBE Rocket 4.1 20:12:10 10° N 20:17:16 77° WNW 20:21:35 15° SSW
Cosmos 773 Rocket 4.4 20:12:57 10° SW 20:18:02 61° WNW 20:23:08 10° NNE
Okean 3 Rocket 3.6 20:14:48 10° NNW 20:19:14 81° W 20:21:53 24° S
Cosmos 1674 2.9 20:18:53 21° WSW 20:19:47 29° WNW 20:21:47 10° N
COSMOS 2406 3.3 20:17:11 18° S 20:21:24 59° ESE 20:27:02 10° NE
Landsat 5 3.8 20:17:55 10° NNE 20:21:59 53° E 20:24:14 25° SSE
NOSS 3-2 (A) 4.5 20:16:29 10° NW 20:23:03 58° NNE 20:31:10 10° ESE
ISS -1.6 20:21:57 10° WSW 20:23:18 13° SW 20:23:18 13° SW
USA 59 Rocket -0.3 20:24:31 33° SSE 20:25:07 37° SE 20:27:54 10° ENE
BREEZE-M R/B 4.1 20:16:38 10° WNW 20:25:28 30° SW 20:27:31 22° S
Cosmos 2084 Rocket 3.7 20:21:58 10° WSW 20:26:13 68° NW 20:30:26 10° NE
NOSS 3-1 (C) 3.7 20:23:12 10° WSW 20:28:17 64° NNW 20:34:40 10° NE
ARIANE 6 FM1 Upper Stage 4.1 20:24:43 10° W 20:28:32 39° NNW 20:32:25 10° NE
Cosmos 2333 Rocket 2.3 20:23:45 10° NNW 20:29:31 76° NE 20:33:55 18° SE
Cosmos 1842 3.7 20:29:20 27° SE 20:30:36 38° E 20:33:52 10° NNE
Cosmos 1833 Rocket 4.4 20:29:09 10° WSW 20:34:17 34° NW 20:39:26 10° NNE
NOSS 2-1 (E) 3.2 20:35:16 34° SSE 20:36:01 40° SE 20:38:53 10° ENE
MetOp-A 4.4 20:32:58 21° S 20:36:16 54° W 20:41:22 10° NNW
Meteor 2-13 Rocket 4.5 20:35:04 19° SSW 20:39:41 87° WNW 20:45:52 10° NNE
Cosmos 1455 4.1 20:41:00 10° NE 20:42:19 12° ENE 20:43:38 10° E
Cosmos 1300 3.4 20:40:50 10° N 20:43:47 34° ENE 20:45:10 23° ESE
ALOS 2 2.6 20:42:21 26° S 20:44:48 80° WSW 20:49:14 10° NNW
Cosmos 1151 Rocket 3.5 20:42:48 25° SSE 20:44:50 45° E 20:48:53 10° NNE
Cosmos 2219 Rocket 2.8 20:40:10 10° NNW 20:45:43 55° NE 20:51:00 11° SE
Cosmos 2333 4.4 20:41:35 10° NNW 20:47:17 69° NE 20:51:55 15° SE
USA 234 3.4 20:44:49 10° ENE 20:51:22 80° NNW 20:57:55 10° W
NOSS 2-1 (D) 2.6 20:50:18 30° SSW 20:51:39 64° SE 20:54:37 10° NE
Meteor 2-4 Rocket 3.8 20:48:50 22° S 20:52:34 77° E 20:58:25 10° NNE
Meteor 1-27 Rocket 3.9 20:48:32 18° SSW 20:52:49 70° WNW 20:58:22 10° N
Cosmos 1980 Rocket 4.2 20:50:39 10° WNW 20:53:57 16° W 20:57:16 10° SW
NOSS 3-1 (A) 3.4 20:52:40 10° WSW 20:57:44 75° NW 21:04:07 10° NE
Sich 1 3.3 20:55:34 10° NNW 20:59:43 54° W 21:01:52 26° SSW
CZ-2C R/B 4.2 20:56:02 10° ESE 21:00:21 28° ENE 21:04:40 10° N
ATLAS CENTAUR R/B 3.8 20:57:23 10° WNW 21:00:31 24° NNW 21:03:43 10° NE
Cosmos 1371 Rocket 4.4 20:55:43 10° NNW 21:01:04 65° ENE 21:05:13 17° SE
BREEZE-M DEB (TANK) 3.7 20:53:59 10° W 21:03:37 36° SW 21:05:28 26° S
Cosmos 2100 Rocket 4.5 20:57:46 10° N 21:04:00 56° ENE 21:08:46 17° SE
SL-16 R/B 2.7 21:00:43 10° NW 21:06:06 46° WSW 21:09:15 23° S
Cosmos 2056 Rocket 3.7 21:01:25 10° NNW 21:06:47 72° ENE 21:10:41 18° SE
PSLV R/B 3.6 21:03:09 10° NNE 21:07:20 65° ESE 21:09:23 28° S
Genesis I 4.3 21:08:06 10° WNW 21:09:43 18° WSW 21:09:43 18° WSW
Cosmos 1624 Rocket 4.1 21:05:37 10° NNW 21:10:50 74° ENE 21:14:39 19° SE
NOSS 2-1 (C) 2.5 21:09:43 23° SW 21:11:32 88° NW 21:14:31 10° NE
Cosmos 1975 4.4 21:10:54 10° NW 21:13:50 23° W 21:15:35 16° SW
Cosmos 1538 Rocket 3.9 21:10:27 21° SSW 21:14:01 88° WNW 21:19:13 10° NNE
Cosmos 1500 Rocket 4.1 21:10:08 10° NNW 21:14:20 48° W 21:16:34 25° SSW
Cosmos 2322 Rocket 2.3 21:09:39 10° NW 21:15:15 61° WSW 21:18:38 24° S
NOSS 3-2 (C) 4.5 21:09:53 10° NW 21:16:31 59° NNE 21:24:38 10° ESE
Exosat Rocket 3.9 21:11:46 10° NW 21:16:41 48° WSW 21:19:21 25° S
H-2A R/B 3.6 21:15:01 15° SE 21:17:52 35° ENE 21:21:26 10° N
Cosmos 1459 Rocket 4.3 21:11:55 10° N 21:17:59 61° ENE 21:22:37 18° SSE
Cosmos 1707 2.8 21:18:01 28° SW 21:19:29 54° WNW 21:22:48 10° N
COSMOS 2428 3.7 21:15:01 10° NNW 21:20:33 46° NE 21:26:03 10° ESE
Cosmos 1633 Rocket 3.4 21:16:56 10° N 21:21:16 60° ENE 21:23:51 23° SSE
Geosat FO 4.1 21:21:07 39° SSE 21:22:04 68° WSW 21:25:05 10° NW
Cosmos 44 Rocket 4.3 21:19:03 10° NW 21:23:40 47° NNE 21:28:22 10° ESE
Meteor 2-10 Rocket 3.9 21:20:12 10° NNW 21:25:57 74° ENE 21:30:03 20° SSE
ARIANE 5 R/B 4.4 21:23:51 14° SW 21:26:09 21° W 21:29:29 10° NW
Cosmos 1066 Rocket 4.2 21:23:03 23° S 21:26:40 88° ESE 21:32:29 10° NNE
Cosmos 1470 3.9 21:28:57 10° NNW 21:32:03 28° W 21:33:25 21° SW
Cosmos 2173 Rocket 4.1 21:26:15 10° N 21:32:40 79° ENE 21:37:12 20° SSE
Iridium 51 4.4 21:29:10 10° N 21:32:44 57° E 21:34:33 27° SSE
Cosmos 2360 Rocket 2.5 21:29:23 10° NW 21:34:51 52° WSW 21:38:03 24° S
CENTAUR R/B 3.3 21:27:53 10° NW 21:35:50 65° SW 21:44:23 12° SSE
Meteor 1-18 Rocket 4.4 21:32:07 22° SSW 21:36:02 78° WNW 21:41:58 10° NNE
GP-B 3.2 21:32:34 10° N 21:36:58 69° W 21:39:19 26° SSW
ATLAS 3B R/B 3.0 21:30:06 11° SW 21:37:21 84° SE 21:45:17 10° NE
USA 229 DEB 3.6 21:33:24 19° SSW 21:37:52 67° SE 21:44:43 10° NE
USA 229 3.6 21:33:32 20° SSW 21:37:58 66° SE 21:44:48 10° NE
ASTEX 1 3.4 21:38:48 10° N 21:43:45 77° W 21:46:45 24° SSW
GEOS 3 Rocket 3.5 21:41:10 10° SE 21:46:17 86° SW 21:51:28 10° NW
Cosmos 1758 3.5 21:43:25 10° N 21:47:14 61° ENE 21:49:25 23° SSE
CZ-2C R/B 4.4 21:42:35 10° NNE 21:47:53 35° E 21:51:58 16° SSE
Cosmos 1328 Rocket 3.6 21:46:16 27° S 21:48:32 68° E 21:52:51 10° NNE
Cosmos 2082 Rocket 3.7 21:44:53 10° WSW 21:49:59 34° NW 21:55:08 10° NNE
Cosmos 2123 Rocket 4.4 21:46:03 19° SSE 21:50:29 56° E 21:56:40 10° NNE
In-Cosmos 22 4.4 21:49:28 23° S 21:53:09 72° E 21:58:55 10° NNE
Cosmos 2112 Rocket 4.0 22:00:57 23° SSW 22:04:13 74° ESE 22:09:27 10° NNE
COSMOS 2406 4.5 22:00:41 10° WSW 22:06:00 38° NW 22:11:21 10° NNE
Cosmos 2237 Rocket 3.3 22:00:36 10° NNW 22:06:01 44° NE 22:11:24 10° ESE
NOSS 2-2 (D) 4.0 22:09:09 10° NW 22:12:38 55° NE 22:17:13 10° ESE
Cosmos 2061 Rocket 4.3 22:06:38 10° N 22:13:05 70° ENE 22:18:50 13° SSE
Cosmos 2333 Rocket 3.5 22:08:41 10° NW 22:13:17 26° WSW 22:15:53 18° SW
USA 59 Rocket 0.9 22:11:22 10° W 22:14:06 30° NNW 22:16:49 10° NE
NOSS 3-2 (A) 4.0 22:07:12 10° NW 22:14:15 64° SW 22:22:45 10° SSE
Cosmos 1455 1.9 22:12:06 10° NNW 22:14:49 45° W 22:15:31 35° SW
Cosmos 1300 4.1 22:14:40 10° NW 22:16:55 18° W 22:17:48 16° WSW
Cosmos 2322 3.7 22:15:01 10° NW 22:20:43 77° WSW 22:26:00 12° SSE
SL-14 R/B 3.1 22:18:45 27° SSW 22:20:48 88° WNW 22:24:42 10° NNE
Cosmos 1953 3.4 22:18:47 10° N 22:22:14 37° ENE 22:25:38 10° SE
NOSS 2-2 (C) 3.4 22:19:57 10° NW 22:23:39 89° NE 22:28:39 10° SE
Cosmos 1110 Rocket 4.0 22:18:33 10° NNW 22:23:53 81° WSW 22:28:27 14° SSE
NOSS 2-1 (E) 4.5 22:22:25 10° W 22:25:14 30° NNW 22:27:59 10° NE
Cosmos 1437 Rocket 3.9 22:25:52 16° SSE 22:28:03 31° E 22:31:12 10° NNE
Cosmos 1452 Rocket 3.5 22:22:50 10° NNW 22:28:07 88° WSW 22:33:06 11° SSE
Meteor 1-13 Rocket 4.4 22:24:25 20° S 22:28:38 81° E 22:34:37 10° NNE
Cosmos 2219 Rocket 2.9 22:24:23 10° NW 22:29:30 37° WSW 22:32:39 20° SSW
Cosmos 494 Rocket 3.9 22:27:54 21° SSW 22:31:19 81° ESE 22:36:30 10° NNE
USA 234 3.5 22:27:46 10° E 22:34:17 76° N 22:40:50 10° WNW
IRIDIUM 114 4.4 22:31:47 19° S 22:35:38 80° E 22:40:53 10° N
ATLAS CENTAUR R/B 4.2 22:34:58 10° NW 22:37:47 19° N 22:40:37 10° NE
CZ-2C R/B 2.6 22:36:30 18° S 22:40:16 63° WSW 22:45:25 10° NNW
SL-16 R/B 4.1 22:36:23 10° NNW 22:41:27 32° NE 22:46:30 10° E
Cosmos 1048 Rocket 4.1 22:39:54 20° S 22:43:26 65° ESE 22:48:31 10° NNE
Cosmos 1680 Rocket 4.0 22:39:24 16° SW 22:43:33 54° WNW 22:48:41 10° NNE
Cosmos 2016 Rocket 4.2 22:37:49 10° NNW 22:43:51 58° W 22:48:31 17° SSW
IRIDIUM 103 4.3 22:40:55 19° S 22:44:47 88° W 22:50:03 10° N
Cosmos 2297 Rocket 3.6 22:44:12 11° SSE 22:48:44 29° ESE 22:53:33 10° NE
H-2A R/B 3.4 22:50:24 20° SW 22:52:18 29° W 22:55:44 10° NW
Cosmos 1331 Rocket 4.2 22:49:57 10° NW 22:54:59 52° WSW 22:59:07 15° S
Cosmos 2322 Rocket 4.1 22:55:50 10° WNW 22:58:07 13° W 23:00:25 10° WSW
Cosmos 1302 Rocket 4.0 22:53:35 10° NNW 22:58:50 88° ENE 23:04:04 10° SSE
Aureole 3 Rocket 3.9 22:54:55 10° N 22:59:48 49° ENE 23:03:26 10° SSE
Cosmos 921 Rocket 4.3 22:57:50 12° SSE 23:01:10 31° ESE 23:04:53 10° NE
Cosmos 1933 Rocket 4.0 22:58:07 10° NNW 23:02:23 47° W 23:05:27 18° SSW
IRIDIUM 106 4.5 22:59:11 18° SSW 23:03:08 66° W 23:08:21 10° N
COSMOS 2428 3.1 22:59:24 10° NW 23:04:52 47° WSW 23:09:57 12° S
Cosmos 44 Rocket 3.5 23:00:33 10° NW 23:05:08 47° SW 23:09:49 10° SSE
NOSS 3-2 (C) 4.0 23:00:41 10° NW 23:07:44 63° SW 23:16:14 10° SSE
SL-16 R/B 4.2 23:03:14 10° ESE 23:08:44 35° NE 23:14:16 10° N
Cosmos 2292 Rocket 4.1 23:06:34 13° S 23:11:39 69° E 23:16:01 10° NNE
Cosmos 1980 3.7 23:07:30 10° NW 23:13:12 78° WSW 23:18:51 10° SSE
Cosmos 2227 Rocket 4.0 23:09:51 10° SSE 23:14:09 23° ESE 23:18:28 10° NE
Cosmos 1869 Rocket 3.9 23:10:37 10° NNW 23:14:57 53° W 23:18:29 15° SSW
IDEFIX/ARIANE 42P 2.8 23:09:44 10° NNE 23:14:59 70° ESE 23:19:43 13° S
USA 238 DEB 4.0 23:09:06 10° NW 23:16:18 87° NE 23:24:13 10° SE
USA 238 4.0 23:09:11 10° NW 23:16:24 86° NE 23:24:19 10° SE
Cosmos 2360 Rocket 4.3 23:16:57 10° W 23:17:32 10° W 23:18:07 10° W
Cosmos 1515 Rocket 4.3 23:14:53 16° SW 23:18:04 40° WNW 23:22:14 10° N
NOSS 0 Rocket 4.2 23:13:59 10° NW 23:20:00 51° WSW 23:25:58 10° S
Resurs 1-4 Rocket 3.1 23:15:44 10° NNE 23:20:42 41° E 23:25:38 10° SSE
CENTAUR R/B 4.4 23:19:23 10° WNW 23:25:34 23° WSW 23:31:23 12° SSW
Okean 2 3.4 23:24:22 13° S 23:27:52 71° E 23:31:49 10° NNE
CZ-2C R/B 3.7 23:22:15 10° N 23:27:53 54° WNW 23:32:58 13° SW
ATLAS 3B R/B 3.8 23:21:22 10° W 23:28:51 51° NNW 23:36:32 10° NE
USA 229 DEB 4.4 23:22:52 10° W 23:29:06 53° NNW 23:36:09 10° NE
USA 229 4.4 23:22:58 10° W 23:29:11 53° NNW 23:36:13 10° NE
H-2A R/B 2.1 23:25:23 10° NNE 23:29:32 73° ESE 23:33:14 12° S
Meteor 1-21 4.3 23:24:56 14° SSW 23:29:49 73° WNW 23:35:29 10° NNE
NOSS 2-2 (E) 3.7 23:30:19 10° WNW 23:34:01 50° SW 23:38:59 10° SSE
NPP 3.7 23:32:04 10° NNE 23:37:30 87° ESE 23:42:48 11° SSW
Cosmos 1733 Rocket 3.1 23:33:47 10° NNW 23:38:13 74° W 23:42:36 10° S
Cosmos 614 Rocket 4.2 23:34:34 12° SSW 23:39:24 70° ESE 23:44:35 10° NNE
Cosmos 1992 Rocket 4.0 23:34:41 10° NNW 23:39:55 80° WSW 23:45:07 10° SSE
SAR-Lupe-3 4.0 23:37:51 10° S 23:40:48 74° WSW 23:43:46 10° NNW
COSMOS 2455 2.9 23:36:01 10° NW 23:42:05 88° NE 23:48:09 10° SE
Lacrosse 4 Rocket 3.4 23:42:00 10° NNW 23:45:44 33° NE 23:49:32 10° ESE
ADEOS II 3.1 23:40:46 10° NNE 23:45:46 43° E 23:50:45 10° S
Cosmos 1862 Rocket 3.8 23:41:30 10° S 23:45:53 72° E 23:50:21 10° NNE
GENESIS II 3.4 23:42:58 10° NW 23:45:55 62° SW 23:48:51 10° SE
Cosmos 2228 Rocket 3.4 23:42:51 10° S 23:47:23 72° E 23:51:56 10° NNE
Cosmos 1703 3.1 23:44:38 10° S 23:48:05 71° E 23:51:33 10° NNE
ARIANE 6 FM1 Upper Stage 3.8 23:44:24 10° NW 23:48:22 47° NNE 23:52:26 10° E
Cosmos 2237 Rocket 2.5 23:44:45 10° NW 23:50:10 48° WSW 23:55:35 10° S
ALOS 3.3 23:45:50 10° NNE 23:50:11 41° E 23:54:30 10° SSE
USA 281 3.6 23:46:29 10° NNE 23:53:01 62° ESE 23:59:30 10° SSW
CZ-2D R/B 2.5 23:48:26 10° NNE 23:53:55 67° ESE 23:59:21 10° S
